DELTA 2 R/B(1)

Last updated on Wed Jul 02 2025 00:02:14 GMT+0000 (Coordinated Universal Time)

1 20453U 90008B 25182.52287676 .00027775 00000+0 61852-3 0 9994 2 20453 35.6094 350.5301 0136534 130.9386 230.3252 15.33343916887325
UTC large
Height (km)
Speed (km/s)
/
Latitude / Longitude
Inclination (degrees)
Orbital Period (minutes)
Azimuth
Elevation
Range (km)
Doppler Factor

Next 0 passes for location: London (51.5072 / 0.1276)

Sorry there are no passes over London.